Overview Statistics Trail Chart Weather Telemetry Raw packets
 

This is the latest recevied weather packets stored in our database for station/object MB7UUE. If no packets are shown the sender has not sent any weather packets the latest 10 day(s).

<< 1 2 3 4 5 >>
Time Temp. Humidity Pressure Rain* Wind** Luminosity Snow
1788717216 22.22° C 49% 1017.9 hPa 0 mm - - -
1788716203 22.78° C 48% 1018.1 hPa 0 mm - - -
1788716077 22.78° C 48% 1018 hPa 0 mm - - -
1788715061 22.78° C 48% 1018.2 hPa 0 mm - - -
1788714937 23.33° C 48% 1018.1 hPa 0 mm - - -
1788713922 23.89° C 48% 1018.2 hPa 0 mm - - -
1788713809 23.89° C 48% 1018.2 hPa 0 mm - - -
1788712783 24.44° C 44% 1018.3 hPa 0 mm - - -
1788712657 24.44° C 44% 1018.3 hPa 0 mm - - -
1788711642 25° C 36% 1018.3 hPa 0 mm - - -
1788711516 25° C 36% 1018.4 hPa 0 mm - - -
1788710502 25.56° C 36% 1018.1 hPa 0 mm - - -
1788710376 25.56° C 36% 1018.1 hPa 0 mm - - -
1788709361 25.56° C 37% 1018.2 hPa 0 mm - - -
1788709235 25.56° C 36% 1018.3 hPa 0 mm - - -
1788708223 25.56° C 35% 1018.5 hPa 0 mm - - -
1788708097 25.56° C 35% 1018.5 hPa 0 mm - - -
1788707082 26.11° C 35% 1018.7 hPa 0 mm - - -
1788706956 26.11° C 35% 1018.7 hPa 0 mm - - -
1788705943 26.67° C 32% 1018.9 hPa 0 mm - - -
1788705817 26.67° C 32% 1018.9 hPa 0 mm - - -
1788704802 26.67° C 34% 1018.9 hPa 0 mm - - -
1788704676 26.67° C 34% 1018.9 hPa 0 mm - - -
1788703663 26.67° C 30% 1019.1 hPa 0 mm - - -
1788703536 26.67° C 30% 1019.1 hPa 0 mm - - -

* Rain latest hour (hover to see other rain measurements)
** Current wind speed in m/s (hover to see current wind gust speed)